Tracking 31027 objects as of 19-Jul-2025
HD Live streaming from Space Station
objects crossing your sky now

TITAN 3C TRANSTAGE DEB

Track TITAN 3C TRANSTAGE DEB now!


NORAD ID: 36980
Int'l Code: 1965-108DL
Perigee: 607.7 km
Apogee: 30,136.7 km
Inclination: 27.1 °
Period: 531.8 minutes
Semi major axis: 21743 km
RCS: 0.0286 m2 (small)
Launch date: December 21, 1965
Source: United States (US)
Launch site: AIR FORCE EASTERN TEST RANGE (AFETR)

Note: This is SATELLITE DEBRIS
Your satellite tracking list
FENGYUN 1C DEB
Track 1 satellite(s)




NASA's NSSDC Master Catalog

Two Line Element Set (TLE):
1 36980U 65108DL  25195.12792193 -.00000100  00000-0  43991-3 0  9993
2 36980  27.1035 337.1497 6790387 125.3819   8.4883  2.70780237 11211
Source of the keplerian elements: AFSPC